Карточка аэропорта UNKL

Внимание!
Информация на этой странице в стадии наполнения.
Если вы не увидели какой-то информации, или заметили неточность - пожалуйста сообщите нам!
Спасибо!
Команда RU-STAFF
Название аэропортаЕмельяново
Название аэропорта (англ.)Yemelyanovo
Превышение942 ft. (287.1 m.)
Координаты56°10.386', 92°29.598'
Высота перехода1200m
Эшелон переходаQFE>=729mm: FL060; QFE<729mm: FL070
Коды ответчика5320-5377
Зона ОрВДКрасноярск РПИ (UNKL)
Данные METARUNKL 091200Z 24005MPS CAVOK M11/M19 Q1026 R29/810250 NOSIG RMK QFE744
Проноз погоды (TAF)UNKL 091058Z 0912/1012 24003G08MPS 9999 SCT020 TEMPO 0912/0915 26008G15MPS TEMPO 1001/1006 25008G16MPS BECMG 1006/1008 24008G16MPS BECMG 1009/1011 4500 -SN BLSN
NOTAMshow/hide NOTAM
AWOS   TABLE

Информация о ВПП

ВПП Длина ВПП (м.) Покрытие Курс ВПП Частота ILS
113700Асфальтобетон109110.5
293700Асфальтобетон289111.7

Диспетчерские позиции

Позывной Наименование органа УВД Частота
UNKL_R_APPКрасноярск-Круг122.0
UNKL_APPКрасноярск-Подход127.7
UNKL_GNDКрасноярск-Руление121.9
UNKL_TWRКрасноярск-Старт/Посадка118.3



Спутниковое изображение